Weather History for Gallup, NM

Change the Weather History Date:

Tuesday, December 3, 2013

  Actual Average Record
Temperature  
Mean Temperature 42 °F -  
Max Temperature 54 °F 45 °F 65 °F (1987)
Min Temperature 30 °F 15 °F -9 °F (1991)
Degree Days  
Heating Degree Days 23    
Moisture  
Dew Point 21 °F    
Average Humidity 44    
Maximum Humidity 69    
Minimum Humidity 25    
Precipitation  
Precipitation 0.00 in - - ()
Sea Level Pressure  
Sea Level Pressure 29.67 in    
Wind  
Wind Speed 14 mph (SW)    
Max Wind Speed 32 mph    
Max Gust Speed 44 mph    
Visibility 10 miles    
Events      
Averages and records for this station are not official NWS values.
T = Trace of Precipitation, MM = Missing Value Source: NWS Daily Summary

Daily Weather History Graph

Daily Weather History Graph

Search for Another Location

Airport:

Trip Planner

Search our weather history database for the weather conditions in past years. The results will help you decide how hot, cold, wet, or windy it might be!

Date:

Astronomy

Dec. 03, 2013 Rise Set
Actual Time 7:08 AM MST 5:02 PM MST
Civil Twilight 6:40 AM MST 5:30 PM MST
Nautical Twilight 6:08 AM MST 6:01 PM MST
Astronomical Twilight 5:37 AM MST 6:32 PM MST
Moon 7:41 AM MST (12/3) 6:08 PM MST (12/3)
Length of Visible Light 10h 50m
Length of Day
9h 53m
New Moon, 1% of the Moon is Illuminated
Dec 3
New Moon
Dec 9
First Quarter
Dec 17
Full
Dec 25
Last Quarter
Jan 1
New

Hourly Weather History & Observations

Time (MST) Temp. Windchill Dew Point Humidity Pressure Visibility Wind Dir Wind Speed Gust Speed Precip Events Conditions
12:53 AM 37.9 °F 29.2 °F 25.0 °F 60% 29.81 in 10.0 mi SSW 15.0 mph - N/A   Clear
1:53 AM 36.0 °F 27.5 °F 24.1 °F 62% 29.75 in 10.0 mi SSW 12.7 mph - N/A   Clear
2:53 AM 34.0 °F 28.8 °F 23.0 °F 64% 29.75 in 10.0 mi SW 5.8 mph - N/A   Clear
3:53 AM 34.0 °F - 23.0 °F 64% 29.75 in 10.0 mi Calm Calm - N/A   Clear
4:53 AM 30.9 °F - 21.9 °F 69% 29.81 in 10.0 mi Calm Calm - N/A   Clear
5:53 AM 33.1 °F 26.9 °F 21.9 °F 64% 29.81 in 10.0 mi South 6.9 mph - N/A   Clear
6:53 AM 33.1 °F 30.0 °F 21.0 °F 61% 29.86 in 10.0 mi East 3.5 mph - N/A   Clear
7:53 AM 33.1 °F 30.0 °F 21.0 °F 61% 29.86 in 10.0 mi SW 3.5 mph - N/A   Clear
8:53 AM 43.0 °F 36.8 °F 21.0 °F 42% 29.75 in 10.0 mi SW 11.5 mph 18.4 mph N/A   Clear
9:53 AM 46.9 °F - 19.0 °F 33% 29.73 in 10.0 mi SW 26.5 mph 34.5 mph N/A   Clear
10:53 AM 48.9 °F - 21.0 °F 33% 29.71 in 10.0 mi SW 32.2 mph 43.7 mph N/A   Clear
11:53 AM 52.0 °F - 19.9 °F 28% 29.66 in 10.0 mi SW 26.5 mph 38.0 mph N/A   Clear
12:53 PM 53.1 °F - 21.0 °F 29% 29.57 in 10.0 mi SW 20.7 mph 35.7 mph N/A   Clear
1:53 PM 54.0 °F - 19.0 °F 25% 29.56 in 10.0 mi SW 23.0 mph 35.7 mph N/A   Clear
2:53 PM 53.1 °F - 21.0 °F 29% 29.56 in 10.0 mi SW 20.7 mph 39.1 mph N/A   Clear
3:53 PM 52.0 °F - 19.9 °F 28% 29.55 in 10.0 mi SW 21.9 mph 39.1 mph N/A   Clear
4:53 PM 48.9 °F - 19.9 °F 32% 29.60 in 10.0 mi SW 17.3 mph 24.2 mph N/A   Clear
5:53 PM 45.0 °F 39.3 °F 19.0 °F 36% 29.61 in 10.0 mi SSW 11.5 mph - N/A   Clear
6:53 PM 45.0 °F 37.9 °F 18.0 °F 34% 29.61 in 10.0 mi SW 16.1 mph 21.9 mph N/A   Clear
7:53 PM 45.0 °F 37.4 °F 17.1 °F 33% 29.60 in 10.0 mi SW 18.4 mph 33.4 mph N/A   Clear
8:53 PM 42.1 °F 34.5 °F 18.0 °F 38% 29.55 in 10.0 mi SSW 15.0 mph 19.6 mph N/A   Clear
9:53 PM 42.1 °F 33.1 °F 17.1 °F 37% 29.54 in 10.0 mi SW 20.7 mph 26.5 mph N/A   Clear
10:53 PM 42.1 °F 32.3 °F 19.9 °F 41% 29.53 in 10.0 mi SW 24.2 mph 33.4 mph N/A   Clear
11:53 PM 42.1 °F 32.1 °F 23.0 °F 47% 29.50 in 10.0 mi SSW 25.3 mph 32.2 mph N/A   Clear